Terminal Aerodrome Forecast
Issued by NWS

Current Version | Previous Version | Graphics & Text | Print | Product List | Glossary On
Versions: 1 2 3 4 5 6 7 8 9 10 11 12 13 14 15 16 17
000
FTUS41 KPBZ 212300
TAFMGW
TAF
KMGW 212320Z 2200/2224 19007KT P6SM BKN150
     FM221300 22010KT 6SM -SHRA BKN050
     FM221400 24012G20KT 5SM -SHRA BKN025
     FM221900 31010G20KT P6SM BKN035=

USA.gov is the U.S. government's official web portal to all federal, state and local government web resources and services.